Location: Peach Mountain Observatory
(42.3967°N, 83.9367°W)
Time: 21:36:45
(UTC-05:00)

S-56A Canister/Altair - Pass Details

Date: 27 January 2020
Orbit: 633 x 2500 km, 38.9° (Epoch: 26 February)

Event Time Altitude Azimuth Distance (km) Brightness Sun altitude
Rises 18:20:22 0° 213° (SSW) 5,011 12.6 -7.3°
Reaches altitude 10° 18:24:49 10° 202° (SSW) 3,668 11.6 -8.1°
Maximum altitude 18:31:32 24° 153° (SSE) 2,227 9.8 -9.3°
Drops below altitude 10° 18:36:35 10° 102° (ESE) 2,683 9.8 -10.2°
Enters shadow 18:36:49 - 100° (E) 2,738 9.8 -10.2°
Sets 18:39:16 0° 87° (E) 3,418 - -10.6°
